User: anonymous   Login
Location: Newark
(45.0333°N, 18.2865°E)
Time: 16:34:56
(UTC+00:00)
Language:

X-37B - Orbit

View from above orbital plane
View from above orbital plane
View from above satellite
View from above satellite

Ground track
Ground track

The orbit data is extracted from the following two-line orbital elements,

1 45606U 20029A   21301.01120726 0.00000000  00000-0  00000-0 0    03
2 45606  45.0380 173.2885 0020086 288.3343  71.6652 15.78199697    03
Epoch (UTC): 28 October 2021 00:16:08
Eccentricity: 0.0020086
inclination: 45.0380°
perigee height: 322 km
apogee height: 349 km
right ascension of ascending node: 173.2885°
argument of perigee: 288.3343°
revolutions per day: 15.78199697
mean anomaly at epoch: 71.6652°
orbit number at epoch: 0

The dashed part of the orbit path shows where the satellite is in the earth's shadow,  

DLR